Home   Weather   Dickinson   Past weeks

Flag for USA Past Weather in Dickinson, North Dakota, USA — Yesterday and Last 2 Weeks

Now
56 °F

Sunny.


Feels Like: 56 °F
Forecast: 43 / 75 °F
Wind: 3 mph from West

Location: Dickinson Municipal Airport

Current Time: Sep 27, 2016 at 9:46:36 AM

Latest Report: Sep 27, 2016 at 8:56 AM


Visibility: 10 mi

Pressure: 30.01 "Hg (27.49 "Hg at 735m altitude)

Humidity: 72%

Dew Point: 47 °F

Location of DickinsonLocation

Past Weather in Dickinson — Graph

°F

Dickinson Temperature Yesterday

Maximum temperature yesterday: 65 °F (at 2:56 PM)
Minimum temperature yesterday: 36 °F (at 5:56 AM)
Average temperature yesterday: 51 °F

High & Low Weather Summary for the Past Weeks

 TemperatureHumidityPressure
High80 °F (Sep 17, 1:56 PM)100% (Sep 23, 11:56 AM)30.35 "Hg (Sep 23, 11:56 AM)
Low36 °F (Sep 26, 5:56 AM)18% (Sep 17, 2:56 PM)29.59 "Hg (Sep 18, 3:56 AM)
Average55 °F69%29.99 "Hg
* Reported Sep 12 7:56 AM — Sep 27 7:56 AM, Dickinson, Weather by CustomWeather, © 2016

Note: Actual official high and low records may vary slightly from our data, if they occured in-between our weather recording intervals... More about our weather records

Advertising

Dickinson Weather History for the Previous 24 Hours

Scroll right to see more
 ConditionsComfort  
Time TempWeatherWind HumidityBarometerVisibility
7:56 AM
Tue, Sep 27
49 °FSunny.No wind86%30.02 "Hg10 mi
6:56 AM41 °FSunny.3 mph93%30.03 "Hg10 mi
5:56 AM40 °FSunny.5 mph89%30.02 "Hg10 mi
4:56 AM41 °FClear.5 mph86%30.02 "Hg10 mi
3:56 AM44 °FClear.3 mph79%30.02 "Hg10 mi
2:56 AM42 °FClear.6 mph82%30.04 "Hg10 mi
1:56 AM44 °FClear.3 mph79%30.06 "Hg10 mi
12:56 AM45 °FClear.6 mph76%30.07 "Hg10 mi
11:56 PM
Mon, Sep 26
44 °FClear.7 mph79%30.08 "Hg10 mi
10:56 PM45 °FClear.5 mph76%30.09 "Hg10 mi
9:56 PM43 °FClear.5 mph79%30.11 "Hg10 mi
8:56 PM49 °FClear.5 mph66%30.12 "Hg10 mi
7:56 PM50 °FClear.5 mph63%30.14 "Hg10 mi
6:56 PM55 °FClear.3 mph55%30.14 "Hg10 mi
5:56 PM62 °FClear.6 mph43%30.16 "Hg10 mi
4:56 PM64 °FSunny.10 mph34%30.16 "Hg10 mi
3:56 PM65 °FSunny.18 mph31%30.16 "Hg10 mi
2:56 PM65 °FSunny.16 mph32%30.18 "Hg10 mi
1:56 PM64 °FSunny.14 mph32%30.18 "Hg10 mi
12:56 PM64 °FSunny.18 mph30%30.19 "Hg10 mi
11:56 AM62 °FSunny.16 mph34%30.21 "Hg10 mi
10:56 AM61 °FSunny.12 mph35%30.21 "Hg10 mi
9:56 AM56 °FSunny.9 mph53%30.22 "Hg10 mi
Weather by CustomWeather, © 2016

See weather overviewHow to use our weather pages